�N����,����,�g�[���i���ԁj���x,�g�[�����x,��g�[���i���ցj���x,����
 2003/06/01, 0:00,25.8,64,25,24
 2003/06/01, 0:15,25.7,65,25,24
 2003/06/01, 0:30,25.6,65,24.8,24.1
 2003/06/01, 0:45,25.5,65,24.8,24.1
 2003/06/01, 1:00,25.4,65,24.6,24.1
 2003/06/01, 1:15,25.5,66,24.6,24.1
 2003/06/01, 1:30,25.5,66,24.5,24.1
 2003/06/01, 1:45,25.2,65.5,24.5,24
 2003/06/01, 2:00,25.2,66,24.4,24
 2003/06/01, 2:15,25.1,66.5,24.3,24
 2003/06/01, 2:30,24.9,66,24.2,23.9
 2003/06/01, 2:45,24.9,65,24.1,23.9
 2003/06/01, 3:00,24.9,65,24.1,23.9
 2003/06/01, 3:15,24.7,65.5,24,23.9
 2003/06/01, 3:30,24.7,66,23.9,23.8
 2003/06/01, 3:45,24.5,66,23.9,23.8
 2003/06/01, 4:00,24.5,66,23.8,23.8
 2003/06/01, 4:15,24.5,66,23.8,23.7
 2003/06/01, 4:30,24.3,66,23.6,23.7
 2003/06/01, 4:45,24.2,66,23.6,23.6
 2003/06/01, 5:00,24.2,66,23.5,23.6
 2003/06/01, 5:15,24.1,66,23.5,23.6
 2003/06/01, 5:30,24,65,23.4,23.5
 2003/06/01, 5:45,23.9,65,23.3,23.5
 2003/06/01, 6:00,23.9,65,23.3,23.5
 2003/06/01, 6:15,23.8,66,23.3,23.4
 2003/06/01, 6:30,23.7,65,23.3,23.4
 2003/06/01, 6:45,23.5,65,23.2,23.4
 2003/06/01, 7:00,23.5,65,23.1,23.4
 2003/06/01, 7:15,23.4,65,23,23.3
 2003/06/01, 7:30,23.4,65,23,23.3
 2003/06/01, 7:45,23.3,65,23,23.3
 2003/06/01, 8:00,23.2,65,23.1,21.9
 2003/06/01, 8:15,23.2,64.5,23,21.9
 2003/06/01, 8:30,23.2,65,23,21.9
 2003/06/01, 8:45,23.2,64,23,21.9
 2003/06/01, 9:00,23.2,65,22.9,21.9
 2003/06/01, 9:15,23.1,64,22.9,22
 2003/06/01, 9:30,23.1,64,22.9,21.9
 2003/06/01, 9:45,23,64,23,22
 2003/06/01,10:00,23,64,23.2,22
 2003/06/01,10:15,23,64,23.5,22
 2003/06/01,10:30,23.1,64,23.5,22
 2003/06/01,10:45,23,64,23.6,22.1
 2003/06/01,11:00,23.1,64,23.4,22.2
 2003/06/01,11:15,23.2,65,23.4,22.2
 2003/06/01,11:30,23.4,65,23.3,22.2
 2003/06/01,11:45,23.5,66,23.2,22.3
 2003/06/01,12:00,23.4,66,23.1,22.3
 2003/06/01,12:15,23.4,66,23.2,22.3
 2003/06/01,12:30,23.5,65,23.6,22.4
 2003/06/01,12:45,23.8,64.5,23.8,22.4
 2003/06/01,13:00,24,63,24.2,22.1
 2003/06/01,13:15,24.2,62.5,24.7,22.1
 2003/06/01,13:30,24.5,62,25.2,22.3
 2003/06/01,13:45,24.5,62,25,22.4
 2003/06/01,14:00,24.7,62,24.9,22.5
 2003/06/01,14:15,25,65,24.9,22.6
 2003/06/01,14:30,25,65,24.7,22.7
 2003/06/01,14:45,25,64.5,24.5,22.9
 2003/06/01,15:00,24.9,64,24.4,22.9
 2003/06/01,15:15,24.8,63,24.4,23
 2003/06/01,15:30,24.8,62,24.3,23.1
 2003/06/01,15:45,24.8,62.5,24.5,23
 2003/06/01,16:00,24.8,63,24.4,22.6
 2003/06/01,16:15,24.6,62.5,24.1,22.8
 2003/06/01,16:30,24.5,63,24,22.9
 2003/06/01,16:45,24.2,63,23.9,23
 2003/06/01,17:00,24.1,63,23.8,23
 2003/06/01,17:15,24.1,63.5,23.8,23
 2003/06/01,17:30,24.2,63,23.8,23.1
 2003/06/01,17:45,24.2,63,23.7,23.1
 2003/06/01,18:00,24.3,62,23.6,23.2
 2003/06/01,18:15,24.2,63,23.6,23.2
 2003/06/01,18:30,24.2,62,23.5,23.2
 2003/06/01,18:45,24,62,23.4,23.2
 2003/06/01,19:00,24,61,23.2,23.2
 2003/06/01,19:15,23.9,61,23,23.1
 2003/06/01,19:30,23.9,62,22.9,23.1
 2003/06/01,19:45,23.9,61,22.9,23.1
 2003/06/01,20:00,23.8,61,22.8,23.1
 2003/06/01,20:15,23.7,61,22.6,23.1
 2003/06/01,20:30,23.6,61,22.6,23
 2003/06/01,20:45,23.5,61,22.5,23
 2003/06/01,21:00,23.4,61,22.4,23
 2003/06/01,21:15,23.8,63.5,22.4,22.9
 2003/06/01,21:30,23.6,62,22.3,22.8
 2003/06/01,21:45,23.4,61,22.2,22.8
 2003/06/01,22:00,23.2,61,22.1,22.7
 2003/06/01,22:15,23.2,60.5,22,22.6
 2003/06/01,22:30,23.2,60,22,22.6
 2003/06/01,22:45,23.1,60,22,22.5
 2003/06/01,23:00,22.9,60,21.9,22.4
 2003/06/01,23:15,22.9,60.5,21.8,22.4
 2003/06/01,23:30,22.7,61,21.7,22.3
 2003/06/01,23:45,22.6,62,21.6,22.3
 2003/06/02, 0:00,22.7,64,21.6,22.2
 2003/06/02, 0:15,22.5,62.5,21.5,22.2
 2003/06/02, 0:30,22.8,62,21.5,22.1
 2003/06/02, 0:45,22.6,62.5,21.5,22
 2003/06/02, 1:00,22.4,62,21.4,22
 2003/06/02, 1:15,22.2,62,21.2,21.9
 2003/06/02, 1:30,22.1,62,21.2,21.9
 2003/06/02, 1:45,22,62,21.1,21.8
 2003/06/02, 2:00,21.8,62,21,21.7
 2003/06/02, 2:15,21.8,62,20.9,21.6
 2003/06/02, 2:30,21.5,63,20.8,21.6
 2003/06/02, 2:45,21.5,63,20.6,21.5
 2003/06/02, 3:00,21.3,63,20.6,21.5
 2003/06/02, 3:15,21.1,63,20.5,21.4
 2003/06/02, 3:30,21.1,63,20.4,21.3
 2003/06/02, 3:45,20.9,63,20.2,21.2
 2003/06/02, 4:00,20.8,64,20.2,21.2
 2003/06/02, 4:15,20.8,64,20.1,21
 2003/06/02, 4:30,20.7,64,20,21
 2003/06/02, 4:45,20.5,64.5,20,20.9
 2003/06/02, 5:00,20.4,64,19.8,20.8
 2003/06/02, 5:15,20.4,64,19.8,20.8
 2003/06/02, 5:30,20.3,64,19.8,20.7
 2003/06/02, 5:45,20,65,19.8,20.6
 2003/06/02, 6:00,20,64,19.7,20.5
 2003/06/02, 6:15,20,65,19.7,20.5
 2003/06/02, 6:30,19.9,65,19.7,20.4
 2003/06/02, 6:45,19.9,65,19.8,20.5
 2003/06/02, 7:00,19.9,65,19.8,20.5
 2003/06/02, 7:15,19.8,64.5,19.9,20.5
 2003/06/02, 7:30,20,64,19.9,20.5
 2003/06/02, 7:45,20.4,65.5,20,20.1
 2003/06/02, 8:00,20.7,65,20.1,20
 2003/06/02, 8:15,21,63.5,20.3,20.2
 2003/06/02, 8:30,21.2,63,20.4,20.3
 2003/06/02, 8:45,21.5,62,20.5,20.3
 2003/06/02, 9:00,21.8,61,20.6,20.3
 2003/06/02, 9:15,22,61,20.7,20.4
 2003/06/02, 9:30,22.2,59,20.9,20.5
 2003/06/02, 9:45,22.5,59,21,20.5
 2003/06/02,10:00,22.7,57,21.2,20.7
 2003/06/02,10:15,22.7,58,21.5,20.8
 2003/06/02,10:30,22.8,59,21.7,20.9
 2003/06/02,10:45,23.1,57.5,22,21
 2003/06/02,11:00,23.3,57,22.2,21.2
 2003/06/02,11:15,23.4,58,22.5,21.4
 2003/06/02,11:30,23.4,58,22.7,21.5
 2003/06/02,11:45,23.5,58,23,21.6
 2003/06/02,12:00,23.7,59,23.3,21.8
 2003/06/02,12:15,23.7,59,23.4,22
 2003/06/02,12:30,23.8,59,23.6,22.2
 2003/06/02,12:45,24,59,24,22.4
 2003/06/02,13:00,24.1,59,24.3,22.6
 2003/06/02,13:15,24.1,59.5,24.7,22.9
 2003/06/02,13:30,24.3,60,25.1,23.1
 2003/06/02,13:45,24.7,50.5,25.5,23.4
 2003/06/02,14:00,25.2,39,25.9,23.5
 2003/06/02,14:15,25.3,41.5,26.4,23.8
 2003/06/02,14:30,25.7,39,26.9,23.9
 2003/06/02,14:45,25.6,41,27.4,24.1
 2003/06/02,15:00,25.9,41,27.9,24.3
 2003/06/02,15:15,25.9,42,28.6,24.5
 2003/06/02,15:30,26,43,29.3,24.7
 2003/06/02,15:45,26,47,28.6,24.9
 2003/06/02,16:00,26,51,29.1,25.1
 2003/06/02,16:15,26.1,52.5,30,25.3
 2003/06/02,16:30,26.3,54,30.7,25.5
 2003/06/02,16:45,26.5,54.5,31.1,25.7
 2003/06/02,17:00,26.6,55,31.5,25.9
 2003/06/02,17:15,26.6,54.5,31.5,26
 2003/06/02,17:30,26.4,50,30.1,26.3
 2003/06/02,17:45,26.4,49,29,26.5
 2003/06/02,18:00,26.3,50,28.1,26.6
 2003/06/02,18:15,26.2,51.5,27.5,26.8
 2003/06/02,18:30,26.2,52,27,26.8
 2003/06/02,18:45,26,54,26.5,26.9
 2003/06/02,19:00,25.8,53,26.2,25.2
 2003/06/02,19:15,26,55,26,25.2
 2003/06/02,19:30,26,54,25.8,25.7
 2003/06/02,19:45,26,56,25.6,25.8
 2003/06/02,20:00,25.9,55,25.4,25.8
 2003/06/02,20:15,25.8,54,25.2,25.8
 2003/06/02,20:30,25.6,55,25,25.8
 2003/06/02,20:45,25.5,54,24.9,25.8
 2003/06/02,21:00,25.4,53,24.7,25.6
 2003/06/02,21:15,25.2,54,24.5,25.5
 2003/06/02,21:30,25,53,24.4,25.4
 2003/06/02,21:45,24.8,53,24.2,25.2
 2003/06/02,22:00,24.7,53,24,25.2
 2003/06/02,22:15,24.5,52.5,23.9,25
 2003/06/02,22:30,24.4,52,23.7,24.9
 2003/06/02,22:45,24.2,54,23.5,24.8
 2003/06/02,23:00,24.1,55,23.5,24.7
 2003/06/02,23:15,24,57,23.4,24.6
 2003/06/02,23:30,23.9,55,23.2,24.5
 2003/06/02,23:45,23.8,55,23,24.5
 2003/06/03, 0:00,23.7,56,23,24.4
 2003/06/03, 0:15,23.7,56.5,22.9,24.1
 2003/06/03, 0:30,23.6,55,22.8,22.7
 2003/06/03, 0:45,23.5,54.5,22.6,22.6
 2003/06/03, 1:00,23.3,55,22.5,22.7
 2003/06/03, 1:15,23.1,55,22.5,22.7
 2003/06/03, 1:30,23.1,55,22.3,22.6
 2003/06/03, 1:45,23,55,22.2,22.6
 2003/06/03, 2:00,22.8,55,22.1,22.5
 2003/06/03, 2:15,22.7,55,22,22.5
 2003/06/03, 2:30,22.7,55,21.9,22.4
 2003/06/03, 2:45,22.5,56,21.8,22.3
 2003/06/03, 3:00,22.3,56,21.6,22.3
 2003/06/03, 3:15,22.2,55.5,21.5,22.2
 2003/06/03, 3:30,22.1,56,21.4,22.1
 2003/06/03, 3:45,21.9,56,21.4,22
 2003/06/03, 4:00,21.8,56,21.2,22
 2003/06/03, 4:15,21.6,56,21,21.9
 2003/06/03, 4:30,21.5,56,21,21.8
 2003/06/03, 4:45,21.5,56,20.9,21.8
 2003/06/03, 5:00,21.4,56,20.7,21.7
 2003/06/03, 5:15,21.2,56.5,20.7,21.5
 2003/06/03, 5:30,21.1,57,20.6,21.5
 2003/06/03, 5:45,21,56.5,20.6,21.5
 2003/06/03, 6:00,20.9,57,20.6,21.4
 2003/06/03, 6:15,20.9,57,20.6,21.4
 2003/06/03, 6:30,20.8,57,20.5,21.3
 2003/06/03, 6:45,20.8,57,20.6,21.3
 2003/06/03, 7:00,20.7,57,20.7,21.3
 2003/06/03, 7:15,20.7,57.5,20.7,21.3
 2003/06/03, 7:30,20.8,57,20.7,21.3
 2003/06/03, 7:45,21.1,58,20.9,20.5
 2003/06/03, 8:00,21.5,60,21,20.5
 2003/06/03, 8:15,21.8,59,21.1,21
 2003/06/03, 8:30,21.8,59,21.2,21.1
 2003/06/03, 8:45,22.1,57.5,21.4,21.1
 2003/06/03, 9:00,22.4,56,21.5,21.2
 2003/06/03, 9:15,22.9,55,21.5,21.3
 2003/06/03, 9:30,23.1,55,21.6,21.4
 2003/06/03, 9:45,23.3,55,21.8,21.5
 2003/06/03,10:00,23.6,54,21.9,21.6
 2003/06/03,10:15,23.8,54,22,21.8
 2003/06/03,10:30,24.1,54,22.3,21.9
 2003/06/03,10:45,24,52.5,22.6,22
 2003/06/03,11:00,24.1,52,22.9,22.2
 2003/06/03,11:15,24.2,52,23.2,22.4
 2003/06/03,11:30,24.4,46,23.5,22.6
 2003/06/03,11:45,24.3,51.5,23.8,22.8
 2003/06/03,12:00,24.3,50,24.1,23
 2003/06/03,12:15,25,39,24.4,23.2
 2003/06/03,12:30,24.8,45,24.7,23.4
 2003/06/03,12:45,24.8,48.5,25,23.6
 2003/06/03,13:00,24.9,50,25.4,23.8
 2003/06/03,13:15,25,51,25.8,24
 2003/06/03,13:30,25.2,51,26.2,24.2
 2003/06/03,13:45,25.3,52.5,26.5,24.4
 2003/06/03,14:00,25.5,53,26.9,24.6
 2003/06/03,14:15,25.6,52.5,27.2,24.8
 2003/06/03,14:30,25.9,53,27.8,25
 2003/06/03,14:45,26,53,28.3,25.2
 2003/06/03,15:00,26.2,54,28.9,25.4
 2003/06/03,15:15,26.5,54,29.6,25.7
 2003/06/03,15:30,26.7,54,30.4,26
 2003/06/03,15:45,27.1,41.5,30.8,26.2
 2003/06/03,16:00,27.2,42,31.1,26.5
 2003/06/03,16:15,27.2,43,31,26.8
 2003/06/03,16:30,27.2,44,30.4,27
 2003/06/03,16:45,27.2,42,31,27.1
 2003/06/03,17:00,27.2,43,30.8,27.3
 2003/06/03,17:15,27.1,45.5,30,27.5
 2003/06/03,17:30,27,46,29.2,27.6
 2003/06/03,17:45,26.9,46,28.4,27.8
 2003/06/03,18:00,26.7,46,27.9,27.8
 2003/06/03,18:15,26.5,45,27.4,27.9
 2003/06/03,18:30,26.4,44,26.9,27.9
 2003/06/03,18:45,26.3,44.5,26.5,27.9
 2003/06/03,19:00,26,45,26,27.9
 2003/06/03,19:15,25.9,43.5,26,26.4
 2003/06/03,19:30,26,44,25.8,25.6
 2003/06/03,19:45,26,44.5,25.7,25.9
 2003/06/03,20:00,26.1,44,25.5,26
 2003/06/03,20:15,26,44,25.5,26
 2003/06/03,20:30,26,45,25.3,26
 2003/06/03,20:45,26,44,25.1,26
 2003/06/03,21:00,26,45,25.1,26
 2003/06/03,21:15,26,44.5,25,26
 2003/06/03,21:30,25.8,46,24.8,25.9
 2003/06/03,21:45,25.7,45.5,24.7,25.8
 2003/06/03,22:00,25.7,47,24.6,23.9
 2003/06/03,22:15,25.6,47,24.5,23.9
 2003/06/03,22:30,25.5,47,24.4,24
 2003/06/03,22:45,25.4,47,24.3,24
 2003/06/03,23:00,25.2,48,24.2,24.1
 2003/06/03,23:15,25.1,48,24.1,24.1
 2003/06/03,23:30,25,48,24,24.1
 2003/06/03,23:45,25,48,23.9,24
 2003/06/04, 0:00,24.8,49,23.8,24
 2003/06/04, 0:15,24.7,49,23.8,23.9
 2003/06/04, 0:30,24.6,50,23.7,23.9
 2003/06/04, 0:45,24.5,52.5,23.6,23.9
 2003/06/04, 1:00,24.4,53,23.5,23.8
 2003/06/04, 1:15,24.2,52,23.5,23.8
 2003/06/04, 1:30,24.1,52,23.3,23.7
 2003/06/04, 1:45,24,52,23.2,23.7
 2003/06/04, 2:00,23.9,52,23.2,23.6
 2003/06/04, 2:15,23.8,52,23.1,23.6
 2003/06/04, 2:30,23.7,53,23,23.5
 2003/06/04, 2:45,23.6,53.5,23,23.5
 2003/06/04, 3:00,23.5,53,22.9,23.4
 2003/06/04, 3:15,23.4,53,22.8,23.4
 2003/06/04, 3:30,23.3,54,22.7,23.3
 2003/06/04, 3:45,23.1,54,22.5,23.2
 2003/06/04, 4:00,23.1,54,22.5,23.2
 2003/06/04, 4:15,23,54,22.4,23.1
 2003/06/04, 4:30,22.9,54,22.3,23.1
 2003/06/04, 4:45,22.8,54,22.2,23
 2003/06/04, 5:00,22.7,54,22.1,22.9
 2003/06/04, 5:15,22.6,54,22,22.9
 2003/06/04, 5:30,22.4,54,22,22.8
 2003/06/04, 5:45,22.5,54,22,22.8
 2003/06/04, 6:00,22.3,54,21.9,22.7
 2003/06/04, 6:15,22.2,54,22,22.6
 2003/06/04, 6:30,22.2,54,22,22.6
 2003/06/04, 6:45,22.2,54.5,22.1,22.6
 2003/06/04, 7:00,22.2,55,22.3,22.6
 2003/06/04, 7:15,22.2,54.5,22.1,22.6
 2003/06/04, 7:30,22.2,55,22.1,22.6
 2003/06/04, 7:45,22.4,56,22.2,21.5
 2003/06/04, 8:00,22.6,57,22.4,21.6
 2003/06/04, 8:15,22.6,55.5,22.5,21.7
 2003/06/04, 8:30,22.7,55,22.6,21.8
 2003/06/04, 8:45,22.8,55,22.8,21.9
 2003/06/04, 9:00,22.8,55,22.9,21.9
 2003/06/04, 9:15,23,55,23,21.9
 2003/06/04, 9:30,23.1,54,23.2,22
 2003/06/04, 9:45,23.1,54,23.4,22
 2003/06/04,10:00,23.3,54,23.5,22.1
 2003/06/04,10:15,23.4,54,23.6,22.2
 2003/06/04,10:30,23.4,55,23.6,22.3
 2003/06/04,10:45,23.4,55,23.6,22.4
 2003/06/04,11:00,23.4,55,23.7,22.4
 2003/06/04,11:15,23.4,55,23.8,22.5
 2003/06/04,11:30,23.4,56,23.8,22.6
 2003/06/04,11:45,23.4,56,24,22.6
 2003/06/04,12:00,23.5,56,24.1,22.7
 2003/06/04,12:15,23.5,56.5,24.1,22.8
 2003/06/04,12:30,23.5,58,24.1,22.9
 2003/06/04,12:45,23.7,58.5,24.2,23
 2003/06/04,13:00,23.8,61,24.1,23
 2003/06/04,13:15,23.8,61,24,23.1
 2003/06/04,13:30,23.9,62,24,23.2
 2003/06/04,13:45,23.9,62,24,23.2
 2003/06/04,14:00,24,62,24,23.3
 2003/06/04,14:15,23.9,61.5,24.1,23.4
 2003/06/04,14:30,23.9,61,24,23.4
 2003/06/04,14:45,24,61,24.2,23.5
 2003/06/04,15:00,24,61,24.7,23.5
 2003/06/04,15:15,24,61,25.5,23.5
 2003/06/04,15:30,24.1,60,26.6,23.6
 2003/06/04,15:45,24.1,59,27.6,23.6
 2003/06/04,16:00,24.3,59,28.2,23.7
 2003/06/04,16:15,24.5,58,29,23.9
 2003/06/04,16:30,24.6,57,29,24
 2003/06/04,16:45,24.7,57,30,24.1
 2003/06/04,17:00,24.9,56,29.4,24.3
 2003/06/04,17:15,24.8,56,28.8,24.4
 2003/06/04,17:30,24.7,55,27.7,24.5
 2003/06/04,17:45,24.5,54,26.9,24.6
 2003/06/04,18:00,24.5,55,26.4,24.7
 2003/06/04,18:15,24.4,56,25.8,24.7
 2003/06/04,18:30,24.2,54,25.2,24.8
 2003/06/04,18:45,24,54,24.9,24.8
 2003/06/04,19:00,24,54,24.6,24.8
 2003/06/04,19:15,24,54,24.5,24.8
 2003/06/04,19:30,24,55,24.2,24.8
 2003/06/04,19:45,24,55,24,24.7
 2003/06/04,20:00,24,55,24,24.6
 2003/06/04,20:15,24,55,23.8,24.6
 2003/06/04,20:30,23.9,56,23.7,24.5
 2003/06/04,20:45,23.9,55,23.6,24.5
 2003/06/04,21:00,23.8,55,23.5,24.4
 2003/06/04,21:15,23.8,55,23.4,24.3
 2003/06/04,21:30,23.8,55,23.3,24.2
 2003/06/04,21:45,23.8,55,23.2,24.1
 2003/06/04,22:00,23.7,55,23.1,24.1
 2003/06/04,22:15,23.7,56,23,24
 2003/06/04,22:30,23.7,56,23,24
 2003/06/04,22:45,23.7,56,22.9,23.9
 2003/06/04,23:00,23.6,56,22.8,23.8
 2003/06/04,23:15,23.5,56,22.8,23.8
 2003/06/04,23:30,23.5,56,22.7,23.7
 2003/06/04,23:45,23.4,57,22.5,23.6
 2003/06/05, 0:00,23.2,57,22.5,23.5
 2003/06/05, 0:15,23.1,57.5,22.5,23.5
 2003/06/05, 0:30,23,58,22.3,23.3
 2003/06/05, 0:45,23,58,22.2,23.2
 2003/06/05, 1:00,22.8,58,22.2,23.2
 2003/06/05, 1:15,22.6,58.5,22,23.1
 2003/06/05, 1:30,22.6,58,21.9,23
 2003/06/05, 1:45,22.5,59,21.9,22.9
 2003/06/05, 2:00,22.4,59,21.7,22.8
 2003/06/05, 2:15,22.2,59,21.7,22.8
 2003/06/05, 2:30,22.2,59,21.6,22.7
 2003/06/05, 2:45,22.2,61,21.5,22.6
 2003/06/05, 3:00,22.1,61,21.5,22.6
 2003/06/05, 3:15,22,60.5,21.5,22.5
 2003/06/05, 3:30,21.9,61,21.4,22.4
 2003/06/05, 3:45,21.9,61,21.2,22.4
 2003/06/05, 4:00,21.6,61,21.1,22.3
 2003/06/05, 4:15,21.5,61,21,22.2
 2003/06/05, 4:30,21.4,61,21,22.2
 2003/06/05, 4:45,21.4,61,20.8,22.1
 2003/06/05, 5:00,21.2,61,20.7,22
 2003/06/05, 5:15,21.1,61,20.7,22
 2003/06/05, 5:30,21,61,20.6,21.9
 2003/06/05, 5:45,20.9,61.5,20.7,21.8
 2003/06/05, 6:00,20.9,61,20.6,21.7
 2003/06/05, 6:15,20.8,61,20.7,21.7
 2003/06/05, 6:30,20.7,61,20.6,21.7
 2003/06/05, 6:45,20.7,61,20.7,21.7
 2003/06/05, 7:00,20.7,61,20.7,21.7
 2003/06/05, 7:15,20.7,61,20.8,21.7
 2003/06/05, 7:30,20.8,62,20.9,21.7
 2003/06/05, 7:45,21.1,61.5,21,20.5
 2003/06/05, 8:00,21.4,61,21.1,20.6
 2003/06/05, 8:15,21.6,60.5,21.3,20.6
 2003/06/05, 8:30,21.9,60,21.4,20.7
 2003/06/05, 8:45,22.2,59,21.5,20.7
 2003/06/05, 9:00,22.5,58,21.8,20.8
 2003/06/05, 9:15,22.7,57.5,22,20.9
 2003/06/05, 9:30,23,57,22.2,21.1
 2003/06/05, 9:45,23.1,57,22.4,21.4
 2003/06/05,10:00,23.4,57,22.6,21.5
 2003/06/05,10:15,23.6,56,22.8,21.6
 2003/06/05,10:30,23.8,55,23,21.8
 2003/06/05,10:45,24.1,53.5,23.3,21.9
 2003/06/05,11:00,24.5,52,23.7,22.1
 2003/06/05,11:15,25,51,24,22.2
 2003/06/05,11:30,25.1,51,24.3,22.3
 2003/06/05,11:45,25.1,51,24.6,22.5
 2003/06/05,12:00,25.5,49,24.8,22.8
 2003/06/05,12:15,25.6,49.5,25.1,23
 2003/06/05,12:30,25.3,51,25.3,23.2
 2003/06/05,12:45,25.3,52.5,25.6,23.4
 2003/06/05,13:00,25.6,52,25.9,23.6
 2003/06/05,13:15,25.8,51,26.4,23.8
 2003/06/05,13:30,26,50,26.7,24
 2003/06/05,13:45,26.1,50,27,24.3
 2003/06/05,14:00,26.4,49,27.5,24.5
 2003/06/05,14:15,26.6,51.5,28,24.8
 2003/06/05,14:30,26.8,50,28.4,25
 2003/06/05,14:45,26.9,49.5,28.8,25.1
 2003/06/05,15:00,27,48,29.3,25.4
 2003/06/05,15:15,27,48.5,29.9,25.6
 2003/06/05,15:30,27.9,42,30.4,25.9
 2003/06/05,15:45,28.3,38.5,30.5,26
 2003/06/05,16:00,28.2,39,30,26.2
 2003/06/05,16:15,27.9,39,30.9,26.4
 2003/06/05,16:30,27.8,39,31.3,26.5
 2003/06/05,16:45,27.7,38,31.7,26.6
 2003/06/05,17:00,28.1,39,32.1,26.8
 2003/06/05,17:15,28.5,39.5,32,27
 2003/06/05,17:30,28.2,41,31.1,27.1
 2003/06/05,17:45,27.9,41.5,29.8,27.2
 2003/06/05,18:00,27.6,42,29,27.3
 2003/06/05,18:15,27.5,43.5,28.5,27.4
 2003/06/05,18:30,27.3,44,28.2,27.5
 2003/06/05,18:45,27.3,47,27.8,27.5
 2003/06/05,19:00,27.3,50,27.4,27.5
 2003/06/05,19:15,27,48,27.1,26.4
 2003/06/05,19:30,26.8,49,26.8,25.7
 2003/06/05,19:45,26.8,47,26.6,26.1
 2003/06/05,20:00,26.7,46,26.3,26.2
 2003/06/05,20:15,26.5,47,26.1,26.1
 2003/06/05,20:30,26.4,47,25.9,26.1
 2003/06/05,20:45,26.2,46,25.8,26
 2003/06/05,21:00,26.1,45,25.5,26
 2003/06/05,21:15,26,44,25.3,24.1
 2003/06/05,21:30,25.8,42,25.1,24.1
 2003/06/05,21:45,25.6,41,24.9,24.2
 2003/06/05,22:00,25.4,40,24.7,23.4
 2003/06/05,22:15,25.1,38.5,24.5,23.5
 2003/06/05,22:30,25,38,24.4,23.6
 2003/06/05,22:45,24.9,39,24.2,23.7
 2003/06/05,23:00,24.7,40,24.1,23.7
 2003/06/05,23:15,24.7,41.5,24,23.7
 2003/06/05,23:30,24.7,43,23.9,23.7
 2003/06/05,23:45,24.5,43,23.9,23.7
 2003/06/06, 0:00,24.5,44,23.7,23.7
 2003/06/06, 0:15,24.4,44.5,23.6,23.7
 2003/06/06, 0:30,24.2,45,23.5,23.7
 2003/06/06, 0:45,24.1,46,23.4,23.6
 2003/06/06, 1:00,24,46,23.4,23.6
 2003/06/06, 1:15,24,47,23.3,23.5
 2003/06/06, 1:30,23.9,48,23.2,23.4
 2003/06/06, 1:45,23.8,48,23.1,23.4
 2003/06/06, 2:00,23.8,48,23,23.2
 2003/06/06, 2:15,23.6,48,22.9,23.1
 2003/06/06, 2:30,23.4,49,22.8,23.1
 2003/06/06, 2:45,23.3,48.5,22.7,23
 2003/06/06, 3:00,23.2,49,22.6,22.4
 2003/06/06, 3:15,23.3,49.5,22.6,22.1
 2003/06/06, 3:30,23.2,51,22.5,22
 2003/06/06, 3:45,23,51,22.4,22
 2003/06/06, 4:00,22.9,51,22.3,21.9
 2003/06/06, 4:15,22.8,51,22.1,21.9
 2003/06/06, 4:30,22.7,51,22,21.9
 2003/06/06, 4:45,22.5,51,22,21.9
 2003/06/06, 5:00,22.4,51,21.9,21.9
 2003/06/06, 5:15,22.4,51,21.9,21.9
 2003/06/06, 5:30,22.2,52,21.8,21.8
 2003/06/06, 5:45,22.1,52,21.7,21.1
 2003/06/06, 6:00,22.1,52,21.7,21
 2003/06/06, 6:15,22,52,21.7,21
 2003/06/06, 6:30,21.9,52,21.7,21
 2003/06/06, 6:45,21.9,52,21.7,21
 2003/06/06, 7:00,21.9,52,21.8,21.1
 2003/06/06, 7:15,21.8,52,21.8,21.1
 2003/06/06, 7:30,21.9,52,21.9,21.1
 2003/06/06, 7:45,22.2,53,22,21.2
 2003/06/06, 8:00,22.7,55,22.2,21.4
 2003/06/06, 8:15,22.8,54,22.4,21.4
 2003/06/06, 8:30,22.9,53,22.5,21.5
 2003/06/06, 8:45,23,52.5,22.6,21.5
 2003/06/06, 9:00,23.3,52,22.8,21.7
 2003/06/06, 9:15,23.5,51,23,21.8
 2003/06/06, 9:30,23.7,51,23.2,21.9
 2003/06/06, 9:45,24,50.5,23.3,22
 2003/06/06,10:00,24,50,23.5,22.2
 2003/06/06,10:15,24.3,50,23.8,22.4
 2003/06/06,10:30,24.6,49,24,22.5
 2003/06/06,10:45,24.8,49,24.3,22.5
 2003/06/06,11:00,25,49,24.5,22.7
 2003/06/06,11:15,25.1,49.5,24.8,22.9
 2003/06/06,11:30,25.7,45,25.1,23
 2003/06/06,11:45,26.1,43,25.5,23.1
 2003/06/06,12:00,26.5,47,25.9,23.4
 2003/06/06,12:15,26.2,49,26.1,23.5
 2003/06/06,12:30,26.6,45,26.4,23.7
 2003/06/06,12:45,27,41.5,26.8,24
 2003/06/06,13:00,27.3,40,27.1,24.1
 2003/06/06,13:15,27.5,40.5,27.5,24.2
 2003/06/06,13:30,27.6,41,27.9,24.5
 2003/06/06,13:45,28.1,40,28.4,24.6
 2003/06/06,14:00,27.8,43,28.8,24.9
 2003/06/06,14:15,28.3,35.5,29.1,25.1
 2003/06/06,14:30,27.9,41,29.4,25.4
 2003/06/06,14:45,27.9,43.5,29.6,25.7
 2003/06/06,15:00,27.9,45,29.9,25.9
 2003/06/06,15:15,28,45.5,30.4,26.1
 2003/06/06,15:30,28.1,46,30.6,26.4
 2003/06/06,15:45,28.1,47,30.9,26.6
 2003/06/06,16:00,28.2,48,30.6,26.7
 2003/06/06,16:15,28,48,30.8,27
 2003/06/06,16:30,28.1,49,31,27.1
 2003/06/06,16:45,28,49,30.1,27.2
 2003/06/06,17:00,28,49,29.5,27.3
 2003/06/06,17:15,27.8,46.5,28.9,27.5
 2003/06/06,17:30,27.3,46,28.3,27.5
 2003/06/06,17:45,27.2,46.5,28.1,27.5
 2003/06/06,18:00,27.2,47,28,28.4
 2003/06/06,18:15,27.1,50,27.9,28.5
 2003/06/06,18:30,26.9,53,27.6,28.5
 2003/06/06,18:45,27,54,27.5,28.4
 2003/06/06,19:00,27.1,55,27.3,28.3
 2003/06/06,19:15,27.2,55.5,27.1,28.2
 2003/06/06,19:30,27.4,59,27.1,28.1
 2003/06/06,19:45,27.4,58,27,28.1
 2003/06/06,20:00,27.3,57,26.9,28
 2003/06/06,20:15,27.3,56,26.9,28
 2003/06/06,20:30,27.3,56,26.8,27.9
 2003/06/06,20:45,27.2,55,26.6,27.9
 2003/06/06,21:00,27.2,55,26.6,27.7
 2003/06/06,21:15,27.1,55,26.5,27.7
 2003/06/06,21:30,27.1,54,26.4,27.6
 2003/06/06,21:45,27,54,26.4,27.5
 2003/06/06,22:00,27,55,26.3,27.5
 2003/06/06,22:15,26.9,55,26.2,27.4
 2003/06/06,22:30,26.8,55,26.1,27.3
 2003/06/06,22:45,26.8,55,26,27.2
 2003/06/06,23:00,26.6,55,26,27.2
 2003/06/06,23:15,26.5,56,25.9,27
 2003/06/06,23:30,26.4,56,25.8,27
 2003/06/06,23:45,26.2,56.5,25.7,27
 2003/06/07, 0:00,26.2,58,25.6,26.9
 2003/06/07, 0:15,26.1,58,25.5,26.8
 2003/06/07, 0:30,26,58,25.5,26.7
 2003/06/07, 0:45,26,57,25.4,26.6
 2003/06/07, 1:00,25.9,57,25.3,26.6
 2003/06/07, 1:15,25.8,57,25.2,26.5
 2003/06/07, 1:30,25.8,58,25.3,26.5
 2003/06/07, 1:45,25.8,58,25.2,26.4
 2003/06/07, 2:00,25.6,58,25.1,26.3
 2003/06/07, 2:15,25.6,58,25,26.2
 2003/06/07, 2:30,25.5,58,25,26.2
 2003/06/07, 2:45,25.4,58,24.9,26.1
 2003/06/07, 3:00,25.4,58,24.8,26
 2003/06/07, 3:15,25.2,58,24.7,26
 2003/06/07, 3:30,25.3,58,24.7,25.9
 2003/06/07, 3:45,25.2,58.5,24.6,25.9
 2003/06/07, 4:00,25.1,59,24.6,25.8
 2003/06/07, 4:15,25,59,24.5,25.8
 2003/06/07, 4:30,25,59,24.5,25.7
 2003/06/07, 4:45,25,59,24.4,25.6
 2003/06/07, 5:00,24.8,59,24.4,25.6
 2003/06/07, 5:15,24.8,59,24.3,25.5
 2003/06/07, 5:30,24.7,59,24.3,25.5
 2003/06/07, 5:45,24.7,59,24.2,25.5
 2003/06/07, 6:00,24.6,59,24.2,25.4
 2003/06/07, 6:15,24.5,59,24.2,25.4
 2003/06/07, 6:30,24.5,59,24.2,25.3
 2003/06/07, 6:45,24.5,59,24.2,25.3
 2003/06/07, 7:00,24.4,59,24.2,25.2
 2003/06/07, 7:15,24.3,59,24.2,24.3
 2003/06/07, 7:30,24.3,59,24.2,23.4
 2003/06/07, 7:45,24.3,59,24.2,23.4
 2003/06/07, 8:00,24.3,59,24.3,23.4
 2003/06/07, 8:15,24.2,59,24.4,23.4
 2003/06/07, 8:30,24.3,59,24.5,23.4
 2003/06/07, 8:45,24.3,59,24.5,23.5
 2003/06/07, 9:00,24.3,59,24.7,23.5
 2003/06/07, 9:15,24.5,59.5,24.8,23.2
 2003/06/07, 9:30,24.9,60,24.9,23.1
 2003/06/07, 9:45,25.1,59,25.1,23.4
 2003/06/07,10:00,25.4,58,25.3,23.5
 2003/06/07,10:15,25.8,57.5,25.5,23.6
 2003/06/07,10:30,26.1,56,25.8,23.8
 2003/06/07,10:45,26.2,55,26,24
 2003/06/07,11:00,26.5,53,26.2,24.2
 2003/06/07,11:15,26.5,53.5,26.4,24.3
 2003/06/07,11:30,26.6,54,26.5,24.5
 2003/06/07,11:45,26.5,54,26.5,24.6
 2003/06/07,12:00,26.5,54,26.7,24.8
 2003/06/07,12:15,26.8,52.5,26.9,25
 2003/06/07,12:30,27,51,27.2,25.1
 2003/06/07,12:45,27.2,47.5,27.5,25.3
 2003/06/07,13:00,27.2,49,27.8,25.5
 2003/06/07,13:15,27.3,45.5,28,25.8
 2003/06/07,13:30,27.4,43,28.1,25.9
 2003/06/07,13:45,27.8,41.5,28.5,25
 2003/06/07,14:00,27.7,39,28.5,25.7
 2003/06/07,14:15,28,37,28.8,26
 2003/06/07,14:30,27.9,35,28.9,26.3
 2003/06/07,14:45,27.9,34.5,29,25
 2003/06/07,15:00,27.5,41,28.5,25.5
 2003/06/07,15:15,27.1,44.5,27.8,25.9
 2003/06/07,15:30,26.9,46,27.6,26.2
 2003/06/07,15:45,27,48,27.8,26.5
 2003/06/07,16:00,27.3,47,27.8,25.3
 2003/06/07,16:15,27.2,49,27.5,25.9
 2003/06/07,16:30,26.8,48,27.2,26.3
 2003/06/07,16:45,26.8,48.5,27,26.5
 2003/06/07,17:00,26.8,48,26.9,26.7
 2003/06/07,17:15,26.6,48,26.8,26.7
 2003/06/07,17:30,26.6,50,26.8,26.8
 2003/06/07,17:45,26.5,50,26.5,26.8
 2003/06/07,18:00,26.3,48,26.4,26.8
 2003/06/07,18:15,26.2,45.5,26.2,26.8
 2003/06/07,18:30,25.9,47,26.1,26.8
 2003/06/07,18:45,26,48.5,26,26.8
 2003/06/07,19:00,26,49,26,26.8
 2003/06/07,19:15,26.4,49,26,26.7
 2003/06/07,19:30,26.3,50,25.9,26.7
 2003/06/07,19:45,26.3,51,25.9,26.7